RH
5 4 4 4 4 4 4 4 5 4 5 7 7 9 11 14 25 31 31 33 32 39 58 65 60 59 57 48 40 40 44 45 48 48 38 36 39 34 31 32 29 28 26 21 26 32 34 36 35 39 44 44 44 44 42 44 44 39 41 43 41 40 40 40 36 32 30 29 27 28 28 28 28 27 27 27 27 28 25 25 29 29 28 28 22 23 31
5 4 4 5 4 4 4 5 5 4 6 8 9 12 15 22 33 37 42 52 52 55 65 63 60 64 64 59 50 44 47 47 48 48 42 39 37 35 35 32 25 25 20 15 22 27 32 38 36 36 43 43 39 39 39 43 47 45 44 46 49 52 53 49 42 35 33 31 28 27 27 28 31 31 28 25 27 27 25 27 29 26 27 27 20 27 40
4 4 4 5 4 5 5 5 5 5 7 9 11 14 20 33 46 45 49 62 66 71 73 64 57 58 61 64 58 49 44 39 44 50 41 31 29 28 30 25 19 19 15 13 18 19 26 41 41 36 39 38 33 33 33 37 45 49 49 50 54 61 62 54 48 43 36 33 34 34 32 31 32 30 28 27 28 27 27 28 27 26 31 30 22 33 46
5 5 5 5 5 5 5 6 6 5 8 10 12 14 18 30 43 45 51 63 70 77 82 75 59 49 56 62 53 51 54 43 38 44 41 35 29 24 24 23 21 20 19 23 23 15 21 38 43 40 42 38 32 33 35 36 41 46 50 52 54 60 63 60 58 55 47 43 44 40 36 36 35 33 32 30 28 28 31 30 29 30 33 33 30 39 51
5 5 5 5 5 5 5 6 6 5 8 10 12 15 16 20 27 34 48 67 76 78 80 83 73 56 60 67 58 57 65 57 47 46 47 46 42 35 30 31 34 31 28 36 36 23 25 36 39 39 41 38 33 35 38 38 41 46 51 54 55 60 64 63 63 62 60 59 54 45 42 41 39 39 40 37 34 36 37 33 34 36 34 35 35 40 56
5 5 6 5 5 5 5 6 6 7 8 8 12 16 15 15 22 29 43 66 83 85 82 85 83 70 65 69 66 64 66 64 59 55 54 53 51 49 43 39 44 41 35 44 48 39 38 39 37 38 39 38 39 40 38 38 43 47 50 52 54 59 63 63 65 66 66 65 60 55 53 49 43 41 42 41 39 40 41 36 36 39 36 37 37 39 52
7 6 6 6 6 6 5 6 7 7 7 7 11 16 14 14 19 25 38 62 84 94 95 92 87 78 72 69 66 67 67 65 63 60 61 60 55 53 50 45 47 46 42 48 51 48 49 46 41 42 39 38 45 47 41 38 42 45 51 53 51 56 63 63 63 64 63 61 58 55 55 53 51 48 45 40 36 36 40 39 37 38 35 32 32 33 38
8 7 7 6 6 6 6 7 7 7 8 9 10 12 12 13 17 22 37 58 76 89 97 97 91 81 75 71 67 66 66 65 64 61 61 61 57 55 53 49 48 48 47 49 49 48 51 50 46 46 42 41 46 48 43 41 41 44 51 51 48 55 66 65 60 59 58 57 57 55 54 55 59 59 54 48 44 43 44 41 39 39 38 34 32 32 31
9 8 8 7 6 7 6 7 8 8 10 11 10 10 10 12 15 20 32 46 59 74 90 99 96 84 75 71 66 65 64 63 64 64 61 62 62 59 56 55 54 53 50 49 50 50 51 51 50 49 46 45 44 44 43 42 42 44 47 48 51 58 62 66 68 67 62 59 58 59 61 63 66 65 59 54 51 49 48 46 45 45 42 38 37 37 34
10 9 9 8 8 8 7 8 8 9 10 11 11 11 11 13 13 14 25 39 50 68 83 90 92 90 85 80 73 69 68 65 64 65 64 64 64 61 59 58 59 61 58 54 55 56 55 54 53 51 49 47 46 45 44 43 43 45 44 47 55 57 56 63 70 68 64 63 61 63 66 66 66 62 57 52 46 41 41 41 41 41 39 39 42 41 35
11 10 10 10 9 8 8 8 8 9 10 10 12 12 12 13 13 12 23 35 44 59 69 70 74 81 84 86 84 80 79 74 69 68 70 70 67 65 64 60 58 60 59 57 59 60 60 59 57 55 53 51 51 50 49 46 44 44 44 46 51 51 52 62 66 61 63 66 64 64 64 60 59 56 51 47 43 39 40 39 37 37 34 34 37 36 31
12 12 11 11 10 9 9 9 8 9 10 10 12 13 13 14 14 14 21 27 32 44 53 56 60 64 65 70 75 78 82 83 79 76 78 76 68 64 66 66 64 60 55 54 56 57 58 58 57 57 56 55 56 55 54 54 50 47 47 47 48 49 50 58 62 58 62 66 62 61 61 58 57 52 45 43 42 40 40 40 39 38 36 34 34 34 33
13 13 12 11 11 11 10 10 10 9 10 11 12 12 13 15 15 15 18 20 23 31 40 46 51 55 57 59 60 61 65 69 70 68 69 69 63 55 55 59 61 57 53 54 54 53 54 55 56 57 56 55 56 55 53 53 53 53 53 50 50 52 53 56 58 58 61 61 57 59 62 60 55 49 43 43 42 41 43 45 43 39 38 39 37 38 39
13 13 13 12 12 12 11 11 11 10 10 11 11 13 14 14 15 16 16 17 18 21 28 36 43 49 54 53 52 54 58 61 62 57 48 49 51 47 43 45 47 47 47 49 50 51 52 55 57 57 56 55 57 57 55 52 52 56 58 56 55 55 56 56 56 57 56 51 50 56 63 62 58 50 45 44 43 42 46 50 48 42 42 43 42 42 44
14 14 14 13 13 13 13 12 12 12 12 11 11 13 14 13 14 15 15 17 18 17 20 26 30 34 37 36 36 41 47 50 54 53 42 32 32 35 35 36 37 37 36 37 41 44 47 49 49 49 51 52 51 54 55 52 52 55 56 59 60 59 59 58 56 56 52 47 48 51 55 62 64 55 48 47 46 44 46 50 52 49 47 49 49 48 51
15 14 14 14 14 13 13 14 13 13 13 12 12 12 12 13 14 13 14 17 18 16 17 18 19 20 22 23 21 23 26 26 31 45 46 30 20 22 25 26 27 27 28 29 31 34 37 43 44 42 46 50 50 52 53 53 55 55 53 55 57 59 61 60 57 57 53 49 48 46 51 66 70 59 51 50 49 50 50 52 59 60 55 54 57 57 60
15 14 14 14 14 14 13 14 14 14 14 13 13 13 12 12 12 13 15 16 14 14 16 16 17 17 16 18 18 17 19 18 17 28 33 23 16 17 17 17 18 19 21 26 32 36 38 41 42 42 46 50 52 53 53 55 58 58 57 59 58 56 58 59 58 58 58 56 51 50 63 74 68 57 54 51 53 58 56 56 65 68 62 62 69 71 73
14 13 13 12 12 13 13 13 14 14 15 15 14 14 14 13 13 13 15 16 14 13 15 14 14 14 14 15 16 15 16 17 17 17 18 18 18 17 16 19 23 25 27 32 39 45 46 45 46 48 49 49 52 54 55 59 64 63 61 62 61 57 56 56 56 55 56 58 55 58 73 79 66 60 60 57 59 63 60 62 71 71 66 68 74 76 77
12 12 12 11 11 11 11 12 13 13 14 15 15 15 15 14 14 14 15 16 15 14 16 16 14 13 13 12 13 14 13 14 16 16 19 22 19 15 22 28 28 31 36 40 43 46 47 50 53 52 51 52 56 59 57 59 64 64 62 61 61 63 60 56 56 57 57 59 57 59 75 83 73 66 66 65 69 71 70 72 74 70 68 69 71 75 79
12 12 11 11 11 11 11 11 12 12 13 14 15 16 16 15 16 16 15 15 16 15 16 16 14 14 14 12 11 12 11 12 14 14 16 18 15 20 33 34 26 27 34 42 49 47 48 57 59 52 53 58 58 57 58 59 60 60 63 65 64 63 60 57 63 67 60 54 53 58 76 86 80 75 77 77 79 79 77 76 75 77 80 77 74 79 84
12 12 11 11 11 11 12 12 12 12 13 14 14 15 16 16 16 17 17 16 17 18 17 17 17 16 16 14 13 11 10 11 12 12 13 14 13 22 31 27 21 24 28 39 53 51 47 58 62 54 56 59 55 54 58 61 59 55 56 61 62 60 60 63 71 73 66 62 65 73 84 86 82 83 86 85 83 82 81 80 79 81 86 85 83 87 91
13 12 11 12 12 11 12 12 12 13 13 13 14 15 16 16 16 17 19 18 18 19 19 19 19 18 18 18 15 14 13 11 11 11 13 13 12 15 19 19 21 24 23 36 58 61 55 61 64 60 61 59 56 58 55 52 57 58 54 56 59 59 60 65 72 76 78 82 84 84 84 82 80 83 86 87 88 89 89 91 88 84 84 85 86 90 95
13 13 13 13 13 13 14 13 12 14 14 14 15 15 15 16 16 16 19 19 20 21 21 22 23 22 23 22 20 19 18 15 15 13 11 16 21 18 16 18 22 23 22 32 49 57 59 63 63 63 65 61 57 59 55 51 59 65 60 56 57 55 55 61 68 72 75 81 84 85 87 87 85 87 90 93 97 98 98 99 98 95 93 92 91 92 95
14 14 14 14 14 13 14 14 14 15 14 15 16 16 16 17 16 17 19 20 22 23 23 25 28 28 26 25 24 25 23 21 21 18 13 20 30 28 19 16 18 23 26 29 34 43 53 60 60 61 64 60 56 58 57 58 65 67 64 62 61 57 54 58 66 71 76 86 94 95 93 91 89 90 91 90 92 94 95 96 96 95 95 94 94 94 94
15 15 15 15 15 15 14 14 14 14 15 15 16 15 16 17 16 17 19 21 24 26 26 29 30 29 28 29 28 28 27 26 25 24 21 20 23 24 20 15 15 18 22 23 28 40 53 61 65 67 63 57 58 63 62 61 63 62 62 67 68 64 62 63 67 72 78 86 91 88 81 78 80 87 90 88 85 81 78 78 78 78 79 78 77 77 76
16 17 16 16 15 15 15 14 14 14 15 15 15 16 16 17 17 18 19 20 24 27 28 31 32 30 31 34 34 31 30 30 30 30 29 25 22 21 19 18 17 16 15 18 22 28 42 57 68 75 72 60 60 66 65 64 66 64 66 70 68 66 69 72 75 77 76 76 75 73 72 72 73 78 84 86 85 80 73 71 72 71 70 70 67 65 64
17 17 17 16 16 15 15 15 15 15 15 15 16 16 16 16 17 18 19 20 24 29 33 35 35 34 34 36 39 37 35 36 37 36 37 35 30 25 21 22 24 20 20 28 28 28 45 60 61 62 63 57 57 62 61 64 68 67 69 71 66 65 71 72 70 73 76 77 77 73 74 79 83 84 83 78 78 78 73 70 70 68 66 64 61 57 56
18 17 17 16 16 15 15 16 15 15 15 15 15 15 15 16 17 19 19 21 23 28 35 36 35 39 42 41 43 44 41 40 42 42 43 41 38 36 32 30 31 29 29 35 40 47 62 65 55 55 56 52 54 60 58 59 59 58 66 75 70 69 76 75 68 69 74 84 90 85 78 81 84 82 77 69 66 66 62 59 58 55 53 52 50 47 46
18 18 17 16 15 15 15 15 15 14 15 14 14 15 15 16 18 19 20 22 23 25 32 36 38 43 46 44 47 49 45 43 44 45 45 44 43 43 42 38 38 37 35 37 44 54 56 46 43 54 55 48 57 67 63 58 57 57 70 79 68 61 67 71 72 75 78 86 93 87 78 76 71 63 59 57 54 51 49 48 47 46 44 44 42 40 38
18 18 16 15 15 15 14 14 14 13 14 14 14 16 16 17 20 21 21 22 23 24 31 40 45 45 42 41 47 49 45 44 47 47 46 45 44 43 44 44 43 41 43 50 52 52 51 43 37 38 35 33 51 68 65 56 55 60 75 83 73 64 67 69 72 76 78 81 81 74 66 65 60 52 50 49 47 46 44 42 41 39 38 38 36 35 35
17 17 16 15 15 14 13 14 15 16 17 17 15 17 17 18 20 21 22 23 24 25 31 39 43 45 43 41 44 47 46 47 48 48 46 44 44 44 44 47 48 46 52 62 59 50 54 56 50 47 44 38 46 62 63 54 52 58 72 83 84 80 80 77 72 72 71 68 63 59 56 52 50 52 54 47 41 40 36 32 31 29 28 29 30 29 28
17 16 15 15 14 14 14 18 21 24 24 20 18 18 19 19 19 21 24 24 24 28 34 35 38 45 49 46 43 45 52 54 52 53 53 47 44 48 47 46 50 51 52 59 62 57 54 52 50 58 60 47 45 62 65 54 52 61 70 78 84 85 83 80 74 69 66 61 59 64 68 59 49 51 56 48 39 36 30 23 21 20 19 21 21 20 20
16 15 14 16 18 21 24 27 29 30 25 21 20 19 18 20 21 22 23 23 25 32 37 35 37 44 50 51 50 50 58 64 62 64 66 56 46 49 50 45 47 51 52 57 64 60 52 48 52 61 58 45 49 66 66 53 56 67 71 71 73 72 70 68 68 65 62 58 58 64 70 63 50 47 50 47 41 34 25 18 17 17 18 21 22 24 28
16 16 21 26 29 34 36 34 31 27 22 20 21 20 19 22 21 20 22 24 30 38 39 35 41 49 51 57 62 58 58 66 68 67 68 60 48 48 52 51 52 54 55 58 60 58 58 60 61 64 62 52 51 60 62 58 64 72 72 66 61 57 56 57 58 59 57 55 53 53 54 54 52 52 52 48 38 27 20 20 26 30 32 35 37 39 42
24 28 33 35 36 39 38 32 26 23 20 21 22 20 21 23 20 21 25 28 34 44 42 39 49 59 60 66 71 61 55 62 65 60 58 57 54 52 52 57 63 62 55 55 59 65 70 65 58 63 70 64 56 57 60 62 65 70 73 69 58 53 59 61 57 54 53 52 52 53 53 54 56 57 52 41 28 21 24 32 39 41 43 45 47 48 51
38 38 35 35 35 35 32 26 23 22 22 24 25 24 25 24 22 26 32 34 39 46 44 45 56 63 62 65 65 57 56 63 66 62 60 60 62 60 55 59 67 65 56 57 65 71 70 61 55 64 70 63 59 65 67 67 69 72 76 74 61 51 56 62 59 55 54 54 55 57 59 60 61 57 46 31 22 26 36 42 44 46 48 51 54 55 55
42 35 31 32 33 30 25 23 24 25 26 28 28 28 28 27 28 33 39 43 46 46 46 54 62 58 55 62 63 60 64 69 68 69 70 66 65 65 61 61 66 64 60 63 67 66 62 56 56 65 69 63 65 70 68 65 65 66 68 70 61 52 53 56 55 54 56 56 58 60 61 61 59 49 34 24 27 38 45 47 49 52 54 57 58 57 56
37 31 30 31 29 26 25 26 28 29 30 31 31 31 31 31 36 41 44 48 52 50 50 58 61 54 57 70 71 63 63 67 70 75 75 68 67 70 68 66 66 64 65 68 64 59 59 58 57 61 65 64 66 66 58 53 55 55 57 60 59 56 57 58 58 59 60 60 61 61 60 58 53 40 29 31 41 48 50 53 56 58 59 60 60 59 63
32 30 32 30 27 27 29 30 31 32 33 35 35 35 36 39 45 49 51 52 55 55 57 61 61 57 62 75 77 66 60 65 75 82 79 73 73 74 74 72 68 64 67 70 66 61 62 64 63 62 61 63 68 65 55 52 54 54 54 56 56 57 60 62 63 62 62 64 67 65 61 57 49 38 35 43 50 53 55 59 61 61 61 63 65 68 74
33 33 32 30 29 31 33 33 35 37 37 37 38 39 42 46 50 52 55 57 56 57 60 61 62 62 62 67 74 74 68 69 74 78 79 80 76 72 76 79 73 67 70 73 69 65 66 67 67 65 62 65 71 67 57 54 55 53 52 54 57 60 64 65 64 62 62 66 67 63 59 55 45 36 41 50 54 57 62 63 62 63 67 69 72 76 79
35 33 32 32 33 36 36 36 39 39 38 39 41 42 45 48 49 51 58 62 60 58 60 62 66 70 68 66 71 76 75 72 71 71 79 87 81 76 84 86 74 69 76 76 69 69 73 71 68 67 67 69 70 65 60 59 57 54 55 58 61 64 65 63 62 63 64 66 64 59 56 51 39 36 46 56 58 61 65 65 65 70 74 74 74 74 71
35 33 33 36 38 40 40 41 42 42 40 42 44 43 45 49 51 52 58 62 59 59 63 65 67 69 67 66 69 74 74 74 75 78 87 91 84 81 87 86 75 75 82 78 72 75 78 73 69 71 72 70 67 63 64 64 61 59 61 62 62 63 63 62 64 66 65 63 62 58 51 42 35 38 52 61 62 64 67 69 71 73 70 67 65 60 56
38 36 37 41 43 44 44 46 46 44 42 42 44 45 48 52 53 54 57 58 58 61 65 66 66 69 70 71 74 75 74 76 81 89 96 93 86 86 91 90 85 84 84 80 79 82 79 73 73 74 73 71 68 64 65 66 65 64 65 64 64 64 64 64 66 66 63 64 62 50 37 32 36 47 60 65 66 68 69 68 66 63 56 51 46 40 36
42 40 41 46 49 48 47 50 51 48 45 43 43 46 50 52 54 60 65 67 67 69 70 66 66 72 76 75 75 77 81 83 87 93 97 93 89 91 96 95 91 87 84 83 84 82 77 77 78 75 71 71 71 68 65 64 64 66 67 67 68 67 67 68 67 62 63 67 58 38 28 35 46 58 68 71 68 68 66 60 53 49 43 36 29 22 18
46 44 45 50 53 53 52 54 55 54 52 47 44 49 56 58 60 66 71 70 67 70 72 69 68 72 77 78 78 82 89 93 95 97 98 96 94 96 97 94 91 90 90 90 87 81 78 81 84 81 77 76 75 74 72 67 65 66 66 67 68 68 67 68 65 61 66 71 57 35 34 50 62 67 73 74 69 64 60 53 46 42 38 31 23 15 10
51 49 49 53 57 59 59 60 58 56 55 52 51 56 63 66 66 68 68 66 65 68 71 71 70 72 79 85 87 88 90 94 97 98 96 94 97 99 95 92 94 97 96 93 88 81 77 78 81 84 85 82 79 79 77 73 70 69 66 66 69 69 67 67 65 62 67 73 64 44 41 57 71 74 74 73 68 61 55 50 46 41 36 29 21 13 9
59 55 52 53 58 63 66 66 62 60 60 61 61 61 62 63 66 66 65 64 66 68 70 71 73 75 78 82 87 92 96 96 96 97 95 96 101 102 95 93 98 100 94 88 82 77 77 82 86 89 90 85 80 77 75 75 76 76 73 73 75 73 68 68 69 68 69 74 72 58 47 55 71 78 74 70 65 56 46 41 40 35 29 24 17 11 9
68 68 64 60 62 67 70 68 67 68 67 66 66 65 62 63 68 68 65 64 67 70 73 77 79 82 85 84 83 89 94 94 93 93 92 92 97 100 98 98 99 97 91 86 81 77 78 83 87 89 92 90 82 74 72 75 78 80 80 80 80 79 75 74 74 74 72 74 77 71 57 52 65 78 77 69 63 54 44 37 34 28 22 18 13 10 10
69 74 75 73 74 78 77 74 77 83 79 71 68 67 65 67 72 71 68 69 74 77 80 80 77 79 88 91 87 86 90 94 95 95 93 91 95 100 100 99 97 93 90 88 83 80 81 83 82 85 94 96 87 75 70 72 75 79 83 84 82 83 84 84 82 81 79 76 78 78 68 55 59 74 80 73 64 57 50 45 39 30 21 16 13 10 9
67 73 78 81 86 92 91 87 91 97 93 84 80 78 75 76 79 76 72 76 81 82 84 87 83 81 87 91 89 89 93 94 95 96 96 97 100 100 99 96 94 93 93 91 86 82 84 84 81 82 89 95 93 85 77 72 71 74 79 83 86 89 92 92 90 89 87 82 80 81 76 62 57 67 78 76 68 61 56 53 47 38 26 17 13 11 9
68 72 76 80 86 94 98 97 98 101 99 96 94 90 85 86 86 80 76 81 86 87 91 95 92 89 92 95 95 96 96 94 93 95 97 98 100 101 99 97 93 90 89 89 86 84 85 85 81 78 77 80 85 86 80 76 75 76 76 79 85 90 94 96 96 95 94 89 83 83 82 71 58 61 73 78 73 65 61 57 53 47 36 23 14 12 11
73 75 77 78 80 86 94 98 99 100 101 100 98 95 90 87 84 79 79 84 88 90 93 92 88 90 97 100 98 97 98 97 96 94 92 92 95 96 94 92 91 88 85 84 85 86 87 85 80 76 72 73 77 79 76 74 78 80 78 78 81 84 88 94 97 98 99 96 89 86 87 78 62 56 68 81 81 73 67 62 57 53 46 33 20 14 12
Wind_Speed
16 16 17 17 18 19 19 20 20 19 18 18 19 18 18 16 12 11 10 7 5 3 5 10 14 14 14 16 17 16 16 13 10 10 13 14 14 16 17 16 15 14 13 12 9 8 8 7 8 9 8 12 16 17 19 19 17 17 15 14 18 20 14 11 13 11 10 12 15 18 19 19 18 17 18 18 17 18 18 12 7 10 12 11 11 7 6
15 16 16 17 18 19 20 20 20 19 18 18 17 18 19 17 14 12 10 7 5 4 6 8 9 11 12 11 11 12 13 12 10 10 11 12 13 13 14 15 15 15 16 14 12 11 9 7 7 9 9 11 14 14 15 18 20 23 20 13 14 16 14 13 12 10 11 12 10 11 15 15 14 15 19 19 17 18 19 14 10 11 12 13 11 5 7
15 15 16 17 18 19 19 20 20 18 17 16 16 18 18 15 13 15 13 8 5 6 9 9 7 9 10 9 9 10 11 13 12 11 12 13 13 13 13 14 14 14 15 15 14 14 11 8 7 8 9 11 12 11 12 15 18 22 22 18 15 13 12 14 12 8 10 10 6 7 11 12 12 14 17 18 17 17 17 15 15 15 12 14 13 5 7
14 15 16 17 18 18 19 19 19 17 15 14 15 17 16 14 12 14 13 10 8 4 8 10 8 10 11 11 12 11 10 12 13 12 12 12 13 14 13 13 13 13 13 13 15 16 13 10 8 8 8 11 12 10 10 13 15 17 18 19 19 15 13 15 16 12 9 4 1 4 8 7 6 9 11 13 15 15 14 14 16 14 10 12 12 6 8
14 15 16 17 18 18 19 19 19 17 14 12 13 15 16 14 14 15 13 10 11 9 3 8 11 14 12 12 13 12 10 12 12 11 11 11 12 13 14 13 12 13 14 13 13 15 14 13 12 11 11 12 12 10 10 11 13 15 14 14 17 19 17 18 21 21 15 10 8 7 7 6 5 7 7 7 7 7 6 6 6 6 7 7 8 6 7
14 15 16 17 18 19 19 19 19 18 14 11 12 14 14 14 14 15 14 11 11 12 8 1 10 17 14 12 14 13 12 12 12 10 9 10 11 11 13 15 12 12 14 13 12 13 13 14 15 15 14 13 10 9 10 11 13 17 16 12 12 14 13 14 19 21 19 16 15 13 12 13 11 9 7 5 5 5 4 2 3 4 2 0 5 6 5
14 15 16 17 18 19 19 19 19 18 16 14 13 12 12 14 14 14 14 13 12 11 10 7 7 15 15 13 15 15 13 12 11 11 10 9 10 9 10 13 12 11 12 12 13 12 11 13 16 17 18 17 13 10 9 11 14 17 18 15 11 9 11 12 12 12 13 14 14 11 11 15 16 13 9 7 7 7 5 3 2 3 1 2 3 3 4
15 16 16 17 18 19 19 20 20 19 19 17 14 11 11 13 14 13 13 13 13 12 11 8 8 13 13 13 14 15 15 13 12 12 12 12 10 10 10 10 9 9 11 11 13 14 13 14 16 18 18 17 16 14 12 13 16 18 18 16 12 10 13 15 12 11 11 11 11 10 10 9 10 12 13 13 12 11 9 8 6 4 4 4 3 3 4
15 16 17 17 18 19 20 20 20 20 19 17 14 12 12 12 12 12 12 13 13 14 12 9 10 13 14 13 14 15 16 17 16 14 15 14 13 12 12 12 10 8 8 11 12 12 12 13 15 16 16 16 16 15 14 16 18 20 19 16 13 12 16 18 17 13 12 14 13 11 10 7 7 11 13 14 15 14 14 15 14 11 10 9 7 7 9
15 16 17 17 18 19 20 20 20 21 20 17 16 15 13 12 11 11 12 13 13 13 11 10 11 13 13 13 14 15 15 16 16 14 14 15 13 12 12 12 11 9 8 10 11 11 11 11 12 13 14 15 15 13 13 16 18 19 19 18 17 17 16 18 19 14 13 18 17 12 10 7 9 15 16 15 15 14 13 14 14 13 13 9 7 9 11
15 16 17 18 19 19 20 21 21 21 21 19 18 17 15 13 12 12 11 11 11 11 11 13 15 15 13 12 10 10 10 11 11 10 11 12 12 10 9 9 9 8 8 9 9 9 9 9 9 10 11 11 11 11 11 12 14 17 18 17 18 20 17 15 16 12 11 16 17 13 11 8 8 15 19 18 18 16 15 14 12 11 12 11 10 11 11
15 16 17 18 19 20 21 21 22 22 22 21 21 19 17 15 13 12 11 9 9 10 11 13 15 15 15 14 11 9 7 7 9 9 9 9 9 7 5 4 5 5 5 5 6 6 7 6 6 7 7 8 8 8 7 8 8 10 13 14 14 16 15 13 14 11 9 14 16 12 8 8 8 12 16 17 18 18 16 15 14 12 12 12 12 12 12
15 17 17 18 19 21 21 22 23 23 23 22 21 20 19 17 14 13 12 10 9 10 10 10 11 12 12 12 11 12 10 8 9 9 7 7 6 5 4 3 4 5 5 5 5 5 4 4 4 4 5 5 5 7 8 7 5 4 6 10 11 11 12 13 13 10 9 14 17 9 4 7 10 11 13 15 17 18 15 13 14 15 14 14 14 13 13
16 17 18 19 20 21 22 23 24 24 23 22 22 21 19 18 16 14 13 11 11 11 9 8 8 8 8 8 8 9 9 8 8 7 6 5 4 3 3 2 3 4 5 5 4 3 3 4 5 5 5 5 5 7 10 12 12 10 8 9 10 10 10 11 13 12 10 13 16 11 4 5 11 14 14 16 18 18 16 13 14 16 15 15 15 15 14
16 17 18 19 20 22 23 23 24 25 24 23 22 21 20 18 17 15 14 13 12 11 10 9 8 8 7 7 7 6 6 5 4 4 4 4 3 1 1 1 2 2 3 3 3 3 4 5 6 6 7 7 5 4 3 6 10 15 16 14 12 12 12 12 12 14 15 14 13 12 7 5 10 15 16 16 16 17 17 14 13 15 16 14 14 14 13
16 17 18 19 20 21 23 24 24 25 24 24 23 21 20 19 17 16 16 13 10 9 11 10 10 9 9 8 7 7 6 5 4 3 3 4 3 2 1 1 2 2 2 2 2 2 4 4 5 6 5 5 5 3 2 2 1 4 8 10 12 14 15 16 13 12 15 16 14 12 8 5 8 13 15 15 14 14 13 11 11 14 15 13 12 12 12
15 17 18 19 20 21 22 23 24 24 24 24 23 22 21 20 19 18 18 14 10 12 13 11 10 10 9 8 7 7 7 6 6 4 3 4 5 4 3 1 1 2 2 1 1 1 2 3 3 3 2 4 4 3 2 3 3 2 2 1 5 10 12 15 15 14 15 16 15 10 4 4 7 10 12 14 13 12 10 7 9 13 14 12 11 11 12
14 16 17 18 19 20 21 22 23 23 23 23 23 23 22 22 21 21 19 15 13 15 15 12 11 10 8 8 8 7 7 7 7 6 6 6 6 6 5 4 3 1 1 2 3 3 3 3 3 2 1 2 4 2 2 2 3 2 2 2 2 4 7 10 15 16 14 15 15 8 1 3 7 8 10 12 12 11 9 7 8 12 14 14 13 12 14
13 15 16 17 18 19 20 21 21 22 23 23 23 23 23 23 22 21 20 17 16 16 16 13 12 11 9 9 8 7 6 6 6 6 6 6 5 6 6 6 5 4 3 3 3 3 4 3 3 3 2 1 3 3 2 2 3 2 2 2 1 1 3 5 8 10 11 12 13 7 1 3 6 6 8 11 10 8 8 9 11 12 14 16 17 16 17
12 14 15 16 17 18 18 19 20 21 21 22 22 22 22 22 22 21 20 19 17 17 16 15 14 13 11 10 9 7 6 6 5 5 5 5 5 5 5 5 6 4 4 4 3 3 4 3 2 3 3 2 3 4 4 4 4 4 4 3 2 1 2 2 2 4 7 9 10 7 2 3 5 5 6 9 10 9 9 11 12 12 13 16 18 18 18
11 12 14 15 15 16 17 18 19 19 20 20 21 21 22 21 21 21 20 20 18 16 15 15 14 14 13 11 10 9 7 6 6 5 4 5 5 5 4 4 5 4 4 5 4 3 3 3 2 2 3 2 3 4 5 5 3 3 5 4 2 2 2 2 0 2 4 5 6 5 3 3 6 6 7 10 13 13 11 10 11 11 13 15 17 18 19
10 11 12 13 14 15 16 17 18 18 19 19 19 20 20 20 20 20 19 18 17 16 15 15 15 15 14 13 12 12 10 8 8 6 5 5 5 5 4 3 4 4 3 5 5 3 3 3 3 3 3 2 3 4 5 3 2 2 4 4 2 2 3 2 1 1 1 0 2 3 3 3 5 6 8 10 13 14 13 10 10 12 13 15 17 18 18
8 10 11 12 13 14 15 16 17 17 17 18 18 18 18 18 19 19 18 17 17 16 15 16 15 15 15 14 13 13 12 10 9 8 8 8 6 5 4 3 3 3 2 3 4 4 4 4 4 4 3 3 4 4 3 2 2 3 2 2 2 4 3 2 2 2 1 1 2 3 2 2 4 5 7 8 9 11 10 9 10 11 13 15 16 17 18
7 8 10 11 12 13 14 15 16 16 16 17 17 16 17 17 17 17 16 16 15 15 14 14 14 13 13 13 13 13 12 12 10 10 9 9 7 6 4 3 2 2 2 2 3 3 3 3 3 3 4 4 4 3 3 3 3 4 3 2 2 3 3 2 3 2 2 2 3 3 3 4 4 4 4 5 6 6 7 8 8 9 10 12 13 14 16
6 8 9 10 12 13 14 14 15 16 16 16 16 16 16 16 16 15 15 14 13 12 11 10 10 10 11 12 13 12 12 12 11 11 10 9 8 6 5 4 3 1 1 2 2 3 3 3 3 2 2 4 3 2 3 4 3 4 4 2 2 3 3 3 3 3 3 4 5 5 5 5 5 4 3 3 4 5 5 6 7 7 8 10 11 12 13
6 8 9 10 12 13 13 14 15 15 15 15 15 16 15 15 14 14 13 13 12 11 9 8 8 9 10 11 11 11 12 12 12 12 12 11 9 8 7 7 6 4 2 0 1 2 3 3 3 2 2 3 3 3 3 4 4 4 3 3 4 3 3 3 4 4 4 5 6 5 4 4 5 4 4 3 3 5 6 7 8 10 11 12 13 14 15
6 8 10 11 12 13 13 14 15 15 15 15 15 15 15 14 13 12 12 11 10 8 7 6 5 7 8 9 9 10 11 12 12 12 12 11 10 9 9 10 10 8 7 5 2 2 2 1 2 3 4 4 4 3 3 3 3 3 2 2 3 2 2 3 5 4 4 6 7 6 3 3 4 5 5 6 7 8 9 10 11 13 14 14 16 17 18
8 9 11 12 13 13 14 14 15 15 16 16 16 16 15 14 12 11 10 9 8 6 5 4 4 5 6 7 7 9 10 11 11 11 11 10 10 10 9 9 10 10 9 7 6 5 5 2 1 2 3 3 2 1 2 2 2 2 2 3 3 3 4 4 4 5 5 6 6 6 4 4 6 6 6 8 9 10 11 13 14 15 16 17 18 19 20
9 11 12 13 14 14 15 15 16 16 17 17 16 16 15 13 12 9 8 8 7 6 5 4 3 3 4 4 5 6 7 8 9 9 9 8 8 8 7 8 8 8 9 9 8 6 4 3 3 2 1 2 3 1 0 1 2 2 3 4 4 5 6 5 4 5 6 6 6 6 5 6 8 8 8 10 11 11 13 15 16 17 18 19 19 20 21
11 12 13 14 15 16 16 16 17 17 18 18 16 15 14 13 11 9 7 6 6 6 5 3 1 1 3 4 4 5 6 7 8 8 8 7 6 6 6 6 6 7 8 8 6 4 4 4 4 4 2 1 3 2 0 1 2 2 3 3 3 4 5 5 5 5 5 5 6 7 8 8 9 10 11 12 12 13 15 17 18 19 20 20 21 22 22
12 13 14 15 15 16 17 17 17 17 17 17 15 14 12 11 10 8 6 5 5 4 3 2 1 1 3 4 4 4 5 6 7 8 8 7 6 5 5 4 5 5 5 5 4 3 2 2 4 4 3 3 3 2 0 0 1 2 3 4 4 4 4 5 7 7 6 7 7 8 9 9 9 10 11 13 14 14 16 18 19 20 20 20 20 21 21
13 14 15 15 16 17 17 17 17 16 16 15 13 12 10 10 9 7 5 4 4 3 2 2 2 2 3 4 5 5 6 7 9 9 9 9 8 6 6 5 5 4 3 3 4 3 1 0 2 3 3 3 3 2 0 0 1 2 3 4 5 5 4 5 8 8 8 8 8 6 7 9 10 10 11 14 16 16 16 17 17 17 16 17 18 18 19
14 15 15 16 16 16 16 16 15 14 14 12 11 9 8 8 7 5 4 3 3 2 3 3 4 3 3 3 5 5 6 7 8 8 8 8 8 7 7 7 6 5 5 3 2 2 2 2 2 3 4 4 3 1 1 2 3 4 4 4 5 5 6 7 9 10 9 9 8 6 6 9 12 13 14 16 17 17 16 16 16 16 15 16 17 18 18
15 15 15 16 16 15 15 15 13 12 11 9 8 7 6 6 5 4 3 2 2 3 4 5 6 5 4 4 4 4 5 6 8 8 7 8 8 8 7 8 7 6 5 3 2 3 4 3 3 4 5 5 3 2 2 3 4 5 5 5 6 6 8 9 11 11 11 10 10 10 10 12 14 16 17 19 18 16 15 14 14 15 15 16 17 17 17
15 15 15 15 15 14 14 13 10 9 8 6 6 5 5 4 4 3 2 3 4 5 5 6 7 6 5 5 3 3 5 6 7 8 8 7 7 8 8 7 6 6 5 3 2 3 4 5 4 4 5 5 4 3 2 3 4 4 5 6 7 8 9 11 11 12 12 11 11 12 12 13 16 18 20 20 17 15 14 14 14 15 15 15 15 15 15
14 14 14 14 13 12 11 9 7 6 5 5 4 4 3 2 2 2 3 5 6 7 6 7 8 6 5 4 1 4 5 6 6 8 8 8 7 8 9 8 5 6 7 5 3 3 6 7 5 4 6 7 5 4 4 5 5 5 5 6 8 9 9 10 10 12 12 12 12 12 13 15 18 21 22 19 16 14 14 14 13 13 13 13 13 13 13
13 13 12 11 10 9 7 6 5 4 4 4 3 3 2 1 3 5 5 6 7 6 6 7 6 4 3 2 2 5 5 5 6 7 7 8 7 8 9 8 7 7 7 5 4 5 6 6 5 4 6 7 5 6 8 8 8 8 9 9 10 10 10 11 12 13 13 13 13 14 15 17 20 21 20 17 14 13 13 12 11 10 10 10 10 10 9
11 10 8 8 7 5 4 4 4 4 4 3 2 1 2 3 6 7 7 7 7 5 5 6 3 1 1 2 4 5 5 6 6 6 7 8 7 7 8 9 9 9 7 5 5 6 5 5 5 4 5 6 6 8 9 8 8 9 10 11 12 12 11 12 13 13 13 13 14 15 17 19 21 21 18 14 13 12 11 10 9 9 8 8 7 6 5
8 7 6 5 4 3 2 3 3 3 3 2 1 3 4 6 8 8 7 7 6 5 4 4 2 1 2 3 4 6 8 8 6 5 7 9 7 6 8 9 10 10 6 4 5 6 6 5 6 6 4 4 5 8 9 8 8 8 9 10 11 11 11 12 13 13 12 13 14 16 18 19 20 19 16 13 11 11 10 9 8 7 6 4 3 2 2
5 4 3 2 2 2 2 2 2 2 1 2 3 5 7 7 8 9 8 6 5 4 3 2 1 2 3 4 5 8 10 9 6 6 7 7 7 8 9 8 9 9 5 2 4 7 6 5 6 5 4 4 5 8 9 8 7 7 7 8 8 9 11 12 13 13 13 14 14 17 19 20 18 16 13 11 10 9 8 7 5 3 1 0 1 1 2
2 1 2 2 1 1 1 1 1 1 2 4 5 6 7 7 7 8 8 5 3 3 2 1 2 3 5 7 8 9 11 10 10 10 7 6 8 10 8 7 9 7 2 3 7 9 7 5 5 5 5 6 7 8 8 7 7 7 7 7 8 10 11 12 13 13 14 14 16 18 19 19 17 13 10 9 8 7 5 3 1 2 3 3 3 2 2
1 2 2 2 2 1 0 1 1 2 3 4 4 5 6 7 7 7 7 5 4 2 1 1 2 5 7 9 11 12 13 12 12 10 6 6 10 10 7 8 9 5 2 7 10 8 5 5 5 5 5 7 8 7 7 7 7 7 8 9 10 11 12 13 13 13 14 14 16 18 19 18 14 11 8 7 6 3 2 4 5 6 5 5 4 3 2
1 2 3 3 2 2 1 1 1 2 3 3 4 5 6 7 7 6 5 4 3 2 2 3 5 7 9 11 13 14 14 13 11 7 5 8 11 10 7 7 7 5 7 10 9 5 5 6 5 4 5 7 8 7 7 7 7 8 9 10 11 12 13 13 13 13 13 14 16 18 17 14 11 8 6 5 3 4 7 8 8 7 6 5 4 2 0
2 3 4 5 3 2 2 2 2 3 3 4 4 5 5 6 6 5 3 2 3 2 4 6 8 9 10 12 14 14 12 11 10 7 6 8 9 8 6 5 6 8 10 9 5 4 6 6 5 5 6 7 7 7 7 6 7 8 9 10 11 12 13 13 13 13 13 14 15 14 12 9 7 5 4 2 5 8 10 9 8 7 6 4 1 1 2
3 5 6 6 5 4 3 3 3 4 5 5 5 5 5 5 5 4 3 3 4 5 7 9 11 12 13 14 13 11 9 9 8 7 7 9 8 6 5 6 8 10 8 5 4 6 6 5 3 3 5 7 8 7 7 6 6 6 6 8 9 11 12 13 13 13 12 12 13 12 9 7 6 3 3 6 9 11 10 9 7 6 4 2 1 2 2
4 6 7 7 6 6 5 4 4 5 5 5 6 6 6 6 5 5 5 7 8 9 10 11 13 13 13 12 11 10 10 9 7 7 9 10 8 7 9 10 10 7 5 5 6 6 6 5 4 4 5 8 9 8 8 7 6 6 6 7 8 10 12 12 12 12 12 12 12 10 8 7 6 3 6 10 11 11 9 8 6 5 3 1 1 2 2
5 6 7 7 7 7 6 6 6 7 7 7 7 8 8 8 8 8 9 9 10 10 11 12 13 13 13 12 11 9 8 8 6 7 8 8 7 8 11 10 7 5 5 6 7 7 6 5 4 5 7 9 9 10 11 10 8 8 8 9 10 11 13 13 13 13 13 12 11 10 8 7 6 5 8 12 13 11 9 7 6 5 3 2 1 1 2
5 6 6 7 7 7 7 7 7 7 8 8 8 9 9 9 9 10 10 9 9 10 11 12 13 12 12 13 12 9 7 7 7 7 8 7 7 7 8 7 6 6 6 6 7 7 7 6 7 8 11 12 12 12 12 12 11 11 11 11 12 13 14 15 15 15 14 13 12 10 9 7 6 6 9 13 14 12 9 8 6 5 4 2 1 1 0
5 6 7 7 7 7 7 6 6 6 8 9 9 8 8 8 9 10 10 10 11 12 13 14 14 13 11 12 12 9 6 6 6 6 7 8 8 7 6 7 8 8 7 6 7 8 8 9 10 13 15 16 15 13 12 12 12 12 12 13 14 15 15 17 17 16 16 15 14 11 9 8 7 7 9 14 16 15 12 10 7 5 4 3 2 1 1
5 7 8 8 7 7 6 6 6 6 7 9 9 9 9 9 11 12 12 13 14 15 14 14 13 12 11 11 10 7 6 6 7 8 9 9 8 8 8 9 9 8 7 7 9 10 10 11 13 14 15 16 16 16 15 14 13 12 13 14 15 15 15 16 17 17 16 16 15 13 11 9 7 7 9 13 17 17 15 12 10 7 6 5 4 2 2
6 8 9 9 9 9 8 7 6 7 7 9 10 10 10 11 13 14 13 13 14 14 12 10 10 10 11 10 8 7 7 9 10 11 11 10 8 9 10 11 10 9 10 11 12 12 12 14 16 17 18 19 19 19 19 17 14 13 13 14 14 15 15 16 17 18 18 17 16 14 12 10 8 8 9 11 15 18 17 15 13 10 8 7 6 4 3
8 8 9 10 11 12 11 10 9 9 9 10 11 12 12 13 14 13 12 11 12 12 11 11 11 11 10 9 8 8 9 9 11 12 13 11 10 10 12 12 12 12 13 14 14 13 14 16 18 19 20 19 19 19 19 17 15 14 14 15 15 16 16 17 18 19 18 17 16 15 13 11 9 9 9 10 12 16 18 18 16 14 11 9 8 7 6
Wind_Direction
349 349 351 352 352 351 350 350 348 346 348 350 347 351 359 359 355 345 336 327 311 259 223 232 225 214 220 227 223 224 227 223 221 226 227 227 233 236 237 241 244 247 249 249 249 251 249 244 231 218 214 224 226 228 233 234 234 225 206 201 216 219 216 219 219 217 220 222 219 221 222 218 217 221 218 217 220 220 228 240 220 207 216 220 231 239 188
352 351 353 354 354 354 352 353 351 350 353 355 358 4 4 359 357 353 346 331 303 249 218 219 214 213 220 222 219 217 216 212 211 217 218 217 225 230 233 239 242 243 245 245 244 244 244 251 240 220 221 230 228 229 231 229 230 229 222 214 212 212 216 222 217 211 212 215 216 217 217 214 212 216 217 217 218 219 224 232 235 231 222 217 231 238 174
354 354 354 355 358 358 356 356 355 355 358 358 7 15 7 1 3 359 359 359 324 256 230 222 211 212 211 199 195 201 207 208 204 208 218 221 225 229 233 240 242 242 243 241 241 241 235 241 245 228 227 234 229 225 225 221 223 227 228 226 211 193 201 214 214 217 214 205 203 204 200 200 203 208 212 214 215 216 220 225 231 235 224 222 237 235 157
357 355 355 357 1 360 360 1 360 1 3 2 14 22 13 10 14 6 8 15 8 326 238 229 215 201 196 192 193 190 194 205 206 208 217 220 224 229 232 236 236 235 234 233 236 238 232 230 231 217 216 228 230 226 219 213 215 221 225 230 222 204 200 208 214 232 245 234 196 168 160 157 169 182 189 197 202 204 213 227 233 233 221 216 223 197 146
359 358 357 360 2 2 4 6 6 8 7 4 19 26 16 15 20 16 16 18 17 17 297 232 204 189 187 187 186 180 181 193 198 205 210 208 212 220 224 227 228 224 222 223 230 234 231 227 223 215 213 221 224 215 206 204 205 205 209 223 221 212 212 217 220 231 246 260 263 233 187 161 140 138 146 157 168 172 190 222 224 216 220 209 193 173 149
4 4 2 2 3 5 6 9 13 16 13 12 24 25 16 20 25 23 25 28 26 26 17 336 182 179 179 178 173 166 171 180 180 186 195 196 199 206 214 219 223 221 217 218 223 226 225 220 217 213 208 202 193 190 197 197 189 186 191 205 209 203 205 212 218 229 240 248 252 245 225 213 195 169 151 143 144 142 153 177 134 149 221 56 121 154 166
10 11 9 5 5 7 9 11 15 19 21 25 27 18 12 22 29 29 31 35 33 31 34 52 148 168 167 167 167 162 162 166 167 167 163 165 178 184 193 205 215 217 211 210 214 212 207 206 206 203 199 188 170 163 178 183 180 179 185 199 209 198 192 196 202 212 220 224 226 217 208 211 209 206 209 207 196 184 180 196 163 157 211 35 97 154 188
14 17 15 11 10 11 12 15 17 20 25 28 26 19 16 23 30 34 37 40 38 35 42 66 121 150 152 155 158 154 151 144 140 149 145 137 146 152 154 166 180 191 195 200 206 203 197 196 194 192 191 184 174 170 169 170 172 173 183 205 221 203 190 193 185 169 172 187 192 185 182 194 209 217 226 231 230 229 232 240 246 249 266 275 274 274 266
18 21 20 17 16 16 17 20 22 25 29 30 29 30 31 30 34 42 46 47 45 42 47 72 111 128 135 140 138 136 140 135 125 131 135 127 128 132 132 132 129 139 170 182 185 187 188 188 184 183 184 183 181 181 178 176 173 170 179 196 205 194 190 189 183 178 183 184 181 188 198 210 236 234 230 231 235 238 240 242 243 247 260 274 278 273 271
22 23 23 22 22 22 23 25 27 30 32 32 34 37 39 39 42 50 54 53 50 53 62 77 94 106 113 124 128 126 128 130 125 126 127 122 120 122 120 120 117 116 140 155 156 156 160 164 169 174 179 181 182 181 179 182 180 177 180 184 186 194 196 186 183 192 204 202 202 208 208 218 239 233 225 226 231 232 232 232 231 231 236 244 243 241 252
27 27 26 26 26 27 29 30 31 34 35 36 40 42 43 45 47 53 59 58 57 65 78 81 81 84 88 98 114 119 117 121 122 120 117 113 113 113 113 121 128 131 136 138 139 141 143 148 157 166 173 176 178 175 170 175 181 184 186 186 190 201 202 191 195 208 207 202 203 202 204 215 221 216 218 223 226 227 226 223 220 221 225 226 226 231 240
33 32 31 30 31 32 33 34 34 36 37 39 42 44 45 45 48 55 62 63 65 71 78 82 81 79 76 77 81 87 97 117 122 117 113 110 105 100 109 137 153 162 164 153 151 155 154 154 157 163 173 180 183 183 172 167 173 180 186 186 187 196 199 202 213 217 192 184 187 189 208 217 204 205 215 219 221 223 225 225 225 225 227 230 235 241 243
40 38 36 35 36 36 36 37 37 37 37 39 42 45 47 47 50 57 61 60 65 68 69 75 81 78 74 71 70 71 77 91 100 96 88 87 88 92 112 149 165 181 204 212 205 195 185 190 207 211 212 217 225 232 229 215 201 189 191 191 190 196 202 203 204 196 174 181 190 196 219 208 202 209 213 213 218 221 222 227 229 229 230 235 239 244 248
45 44 42 40 40 40 39 39 39 39 38 39 41 44 47 49 53 59 62 60 60 61 60 62 63 61 62 60 59 63 66 74 86 85 69 65 74 83 95 124 153 172 200 215 216 212 202 213 232 234 228 235 247 253 254 249 242 239 233 211 197 195 197 197 195 193 196 204 207 212 236 223 217 220 216 213 217 217 216 222 228 230 233 237 240 243 245
49 47 46 44 42 42 41 41 41 41 39 39 42 44 45 49 54 59 62 61 58 59 62 62 54 46 43 40 39 46 52 58 71 64 34 37 54 62 76 155 180 183 200 205 198 197 195 200 211 210 205 212 214 210 241 258 249 245 245 237 219 205 201 207 211 209 215 224 224 223 233 228 216 216 216 215 218 218 218 222 231 236 237 237 240 241 238
52 50 48 46 44 43 42 42 41 41 40 40 42 44 45 48 53 58 61 61 61 64 64 61 55 48 39 33 34 41 43 39 48 43 356 351 10 13 315 238 229 221 206 200 196 197 190 191 206 210 201 196 190 168 145 124 166 253 255 240 223 214 208 211 218 217 217 227 237 239 234 207 201 212 216 216 218 218 218 221 230 237 237 237 236 234 231
54 51 48 47 45 43 42 42 41 41 40 39 41 42 43 45 49 54 59 58 60 69 67 60 56 51 42 35 37 41 39 37 45 50 14 357 10 11 3 353 264 238 205 175 132 127 147 153 177 192 185 178 174 160 151 145 124 92 42 104 200 207 208 211 219 220 217 223 235 244 237 211 216 219 220 219 213 208 212 219 222 224 228 230 225 220 222
55 51 48 45 44 42 41 41 40 40 39 39 39 40 40 42 45 50 55 55 57 66 67 60 55 52 47 43 43 41 42 44 44 42 31 18 16 16 18 28 43 72 121 131 109 97 106 123 130 118 115 179 168 141 125 124 105 94 76 76 138 191 201 213 225 229 227 228 236 238 174 213 225 218 218 219 207 201 209 210 206 212 219 222 219 216 218
54 51 47 44 42 40 40 39 38 38 38 37 37 37 38 40 42 45 50 52 55 61 62 58 54 53 53 51 49 44 45 48 47 44 39 27 19 26 33 36 45 68 100 114 118 111 99 104 127 114 79 106 134 119 129 147 124 94 95 94 72 135 198 214 232 240 237 234 238 238 191 221 227 210 209 209 198 197 210 210 212 216 216 219 222 221 221
54 49 45 43 40 38 38 37 36 36 36 35 35 35 36 36 38 41 45 47 50 54 55 52 50 50 51 52 53 53 50 48 44 43 43 35 30 40 48 38 37 58 91 94 102 126 106 86 109 125 100 101 124 114 107 123 137 128 110 103 79 74 208 221 237 245 243 241 240 238 231 230 222 203 199 200 198 207 216 217 220 216 208 214 222 222 222
52 48 43 39 37 35 35 34 33 33 34 33 32 33 33 33 34 36 39 41 44 47 48 47 45 47 49 51 53 55 54 52 51 48 48 45 41 50 66 55 42 57 93 93 82 106 125 107 96 119 126 123 122 129 128 122 129 142 133 129 113 120 191 230 294 245 249 252 238 221 206 211 207 198 201 204 208 217 224 225 224 213 205 213 218 219 223
50 44 40 36 34 31 30 29 29 29 30 30 29 30 30 30 30 32 34 37 39 41 42 42 42 44 47 49 51 51 50 49 47 45 50 57 54 58 74 81 64 62 92 101 89 88 108 110 102 102 113 122 119 135 151 149 130 140 145 148 159 172 179 180 145 183 200 149 182 190 196 213 210 210 213 211 214 223 230 234 231 221 216 219 219 219 223
47 40 34 30 28 27 26 24 24 23 23 24 25 26 26 26 26 28 30 31 32 33 35 36 37 39 42 44 46 46 44 44 42 39 45 54 53 50 58 77 82 79 93 113 123 132 129 131 140 130 124 136 135 136 156 157 126 123 139 163 181 186 182 155 119 140 153 111 158 167 166 184 194 203 210 210 214 222 224 224 223 219 219 222 222 223 225
39 33 27 21 19 18 18 18 18 18 18 18 18 18 20 21 21 22 24 27 28 29 30 32 35 35 35 39 42 41 40 42 41 38 41 49 53 51 48 50 66 100 126 131 145 152 145 144 150 146 149 151 139 137 163 155 135 131 125 118 157 174 172 151 136 136 125 126 149 145 139 157 167 174 189 199 204 208 210 213 217 219 224 228 230 233 235
24 17 14 12 9 7 8 9 10 10 11 11 10 10 12 13 13 14 18 22 26 29 30 30 30 29 30 35 38 39 39 39 39 40 41 43 48 52 51 40 35 62 168 187 176 162 158 149 120 106 167 170 145 143 170 170 166 153 136 138 187 181 160 150 149 143 140 151 162 157 150 158 161 155 159 180 199 214 228 237 242 247 251 254 256 259 261
6 2 359 359 359 358 358 359 0 2 2 2 2 3 4 4 3 5 11 14 19 26 28 25 22 22 28 34 37 39 41 39 36 38 38 36 38 44 49 48 42 39 46 63 197 180 174 163 131 114 186 194 168 156 166 174 171 151 140 183 200 185 165 159 154 153 166 179 185 181 177 191 199 197 200 207 222 244 259 269 273 273 274 276 277 277 277
344 346 345 346 347 349 350 350 352 353 353 353 353 352 353 354 354 357 2 6 13 22 24 18 17 20 26 31 33 37 41 40 36 35 33 32 32 35 43 49 46 44 49 50 51 92 95 112 163 176 195 199 186 178 182 179 162 141 155 203 188 173 190 177 164 173 184 184 189 190 175 187 207 215 228 238 247 259 264 269 273 274 274 275 275 276 277
329 332 334 335 337 338 341 343 344 344 343 342 342 342 343 345 347 349 351 356 5 17 17 9 16 24 23 24 27 32 37 37 34 32 28 26 27 28 32 39 42 44 51 56 62 73 78 93 185 205 207 199 182 199 216 195 154 156 194 197 178 179 189 176 176 197 187 164 172 181 168 178 203 221 243 251 256 262 263 264 266 267 269 270 271 273 275
319 323 324 326 328 330 333 335 336 334 333 332 333 334 335 337 340 342 343 347 354 3 12 18 26 31 27 23 25 31 36 34 30 25 20 18 23 25 23 27 34 38 45 55 65 70 68 81 105 103 194 183 146 118 180 141 135 178 202 200 203 203 195 180 178 187 172 148 159 181 188 206 227 243 254 258 263 266 266 267 268 268 270 272 272 273 275
311 314 316 319 322 323 325 328 328 326 325 326 327 329 330 331 333 335 338 342 346 353 12 38 56 28 25 28 30 34 37 32 24 16 13 17 22 22 20 24 24 24 33 42 50 55 46 42 48 46 36 111 116 108 105 138 151 195 200 184 189 203 203 198 191 183 174 172 189 207 218 230 244 256 261 265 270 273 274 276 276 274 275 276 275 275 276
305 308 311 314 316 318 320 321 322 322 322 322 324 326 326 325 327 330 335 341 341 349 18 63 124 53 32 37 45 46 40 34 26 18 14 17 20 17 17 19 12 12 26 25 7 9 56 41 18 24 35 60 86 99 128 141 157 199 202 181 175 178 191 209 216 217 216 218 225 236 245 251 259 268 272 277 282 284 285 283 281 278 277 275 274 274 275
301 305 308 310 312 314 316 318 319 320 320 320 322 323 321 319 322 328 335 340 344 360 43 83 121 112 59 50 55 55 44 33 28 24 18 13 11 6 1 1 360 355 356 357 352 355 35 338 353 13 20 27 52 71 44 247 177 183 183 179 184 189 197 214 224 229 230 233 240 252 261 266 272 280 287 293 296 297 295 290 286 284 281 276 275 276 277
300 303 307 308 310 313 315 317 319 319 318 320 321 320 318 317 319 327 338 346 4 47 81 104 121 127 107 78 63 53 47 36 25 21 17 11 8 7 1 358 359 352 344 347 342 301 302 328 343 326 320 339 10 26 274 257 227 209 201 200 210 217 220 220 224 230 238 244 249 254 263 272 281 289 297 302 304 303 298 294 291 289 286 283 282 282 283
299 303 306 308 311 313 314 316 318 318 318 321 321 319 319 317 319 331 356 26 68 86 92 104 117 120 111 100 72 42 42 41 25 16 14 11 14 18 12 2 360 359 356 349 315 291 296 307 300 286 295 317 332 315 281 265 240 224 226 238 242 237 235 235 236 242 250 256 258 261 268 278 287 296 302 306 306 302 297 295 294 291 289 288 287 288 288
300 304 306 308 311 312 313 316 319 319 321 324 323 322 322 319 327 359 46 74 93 102 102 106 115 113 99 93 75 15 17 23 12 2 0 3 10 18 21 15 4 353 347 342 330 303 283 283 290 283 278 290 306 310 290 266 252 240 237 244 245 238 235 239 246 254 261 264 265 270 279 286 293 300 306 308 306 302 299 298 296 293 292 292 292 293 293
302 304 306 309 311 312 314 318 322 324 328 329 325 326 327 329 360 59 88 92 99 111 115 111 114 115 107 101 45 351 360 3 354 351 354 358 357 0 13 23 6 336 343 352 342 297 278 283 293 283 274 284 296 287 269 256 247 246 243 241 244 244 241 244 253 262 266 267 269 278 287 293 298 305 309 309 306 304 303 302 299 297 297 297 295 295 297
302 305 307 310 313 314 317 325 329 332 334 332 327 338 355 40 84 97 104 104 105 113 122 120 118 117 118 108 6 354 358 351 343 346 352 355 352 349 0 11 1 347 353 353 324 303 297 299 299 283 279 286 279 264 264 258 244 242 243 243 247 253 257 260 262 262 263 268 276 284 292 297 303 308 310 307 306 306 305 304 304 303 301 299 297 298 301
302 306 308 312 314 316 321 334 337 336 339 340 343 26 83 112 116 114 112 110 111 114 123 129 129 84 55 44 357 349 348 343 347 350 343 342 349 352 353 354 353 355 357 337 323 339 347 338 337 326 299 292 281 270 270 268 256 249 246 246 250 257 262 264 262 258 261 271 283 292 298 304 309 312 310 308 308 309 307 307 308 306 302 300 301 303 309
302 308 313 314 314 315 327 342 343 340 345 2 66 111 118 122 125 125 122 117 115 118 124 126 118 31 22 10 346 340 341 343 349 347 334 332 339 348 345 341 344 353 356 335 337 2 5 340 336 344 335 313 296 282 278 276 271 261 250 246 251 256 257 256 255 256 264 275 285 292 298 304 308 308 307 308 310 309 307 306 304 302 301 301 306 320 336
301 306 308 299 295 309 331 349 354 353 23 86 114 126 129 132 134 136 135 130 123 128 135 122 74 5 357 354 343 337 339 340 333 326 327 327 330 338 341 336 338 350 360 324 328 349 351 328 323 336 334 303 288 288 287 282 274 268 259 252 250 249 248 249 253 260 270 279 285 291 297 303 304 303 303 308 311 307 303 300 297 295 284 187 135 82 41
292 256 235 240 265 300 329 5 25 43 88 110 127 137 141 144 144 141 141 146 153 157 148 93 12 344 342 348 343 337 337 335 328 325 325 319 324 335 338 331 336 348 352 296 324 341 343 322 316 320 306 291 293 303 304 290 275 269 266 259 251 246 248 254 260 268 276 284 290 296 300 303 303 301 305 311 308 298 289 281 212 146 138 137 131 115 92
254 203 202 213 233 249 293 55 78 118 124 125 138 149 150 152 154 151 152 165 180 183 187 315 326 322 327 335 338 336 334 330 328 330 326 313 321 331 333 330 339 348 297 303 324 333 321 309 316 317 307 308 318 325 317 296 280 269 262 260 258 257 259 264 269 275 283 289 295 300 302 301 299 300 308 311 301 275 197 148 140 139 139 137 133 126 116
221 189 194 207 222 225 207 128 129 153 156 153 160 163 161 162 164 162 163 175 188 204 270 310 322 327 329 329 330 329 327 325 325 327 314 309 320 329 328 326 331 322 307 314 321 309 292 302 302 294 305 321 330 330 316 297 281 269 262 262 263 264 268 272 275 279 287 296 303 306 305 299 295 302 311 305 260 175 150 145 145 144 141 140 137 132 146
203 186 199 213 223 225 214 201 190 191 194 193 187 183 181 179 175 169 170 202 227 263 299 315 324 326 322 321 324 325 324 322 323 319 306 308 319 323 319 314 312 312 315 317 304 281 298 305 283 275 303 323 328 329 324 307 285 270 262 264 268 270 272 275 278 283 292 303 313 317 313 303 299 306 302 246 179 157 150 150 152 149 145 142 124 9 313
204 197 206 217 223 222 220 222 220 211 207 204 197 193 193 192 187 186 208 244 268 290 301 309 316 318 315 315 320 320 315 314 314 305 299 307 314 307 295 299 305 309 313 307 281 286 306 309 280 285 319 326 324 326 330 323 305 284 268 266 271 274 274 276 280 285 295 309 323 328 323 313 311 299 228 187 170 160 157 159 159 156 153 145 37 5 347
198 201 211 222 231 234 230 224 219 212 206 201 199 201 206 210 217 232 255 269 281 292 299 305 311 314 313 313 315 312 309 311 306 291 294 305 305 292 292 301 302 297 290 287 285 287 294 296 286 289 308 315 314 313 313 312 302 288 279 275 273 273 274 277 282 286 293 308 327 335 328 318 311 272 201 182 172 168 168 170 173 175 174 173 357 3 8
195 203 212 223 234 237 229 221 217 215 213 211 212 218 227 236 246 258 267 273 281 292 303 310 314 314 312 312 313 311 309 309 303 293 296 301 294 287 295 300 291 269 270 286 289 286 287 291 287 282 289 297 298 299 302 302 292 276 270 270 269 270 272 275 280 284 290 301 319 331 329 317 302 259 207 188 180 179 182 185 190 198 203 218 318 352 21
198 198 206 219 229 230 224 220 221 223 225 227 229 235 242 249 258 265 269 274 285 297 307 313 317 317 314 312 311 308 301 299 299 297 299 298 290 286 289 285 269 263 272 279 281 285 289 287 285 290 293 289 284 287 294 295 286 275 268 262 262 265 267 270 274 280 285 292 306 320 324 313 294 260 218 199 192 191 195 197 200 207 211 216 255 340 26
210 207 211 219 228 229 225 220 218 225 235 240 243 250 258 262 269 277 284 290 295 299 303 308 312 311 306 304 307 309 301 292 290 291 294 293 285 275 272 272 272 275 276 273 275 284 289 287 287 292 292 287 283 288 296 295 286 278 269 262 260 262 264 266 271 277 281 286 295 308 316 307 289 261 228 210 203 202 205 207 209 210 209 206 201 207 219
227 222 223 226 233 239 238 230 225 233 245 250 252 260 270 274 279 286 291 293 294 297 301 305 308 307 302 300 303 300 285 275 273 275 280 281 272 264 268 274 275 274 276 279 283 288 292 290 288 289 289 285 284 290 299 302 296 286 276 268 263 260 260 264 268 271 276 281 287 296 305 304 286 262 238 221 213 211 213 216 218 217 212 203 194 190 213
244 236 231 233 239 245 246 240 232 234 242 251 258 266 272 276 280 286 291 292 293 296 299 301 302 302 301 299 295 289 285 284 281 279 279 277 267 260 266 274 279 282 285 288 290 293 293 290 290 292 293 292 291 294 299 301 299 293 286 277 267 259 257 260 262 263 267 273 279 287 298 301 286 267 253 237 225 220 220 222 224 223 220 213 201 190 195
255 249 241 239 243 247 248 247 248 247 247 254 264 271 275 280 285 291 295 295 294 294 296 299 300 300 295 290 287 287 286 281 277 279 283 282 273 268 272 279 285 291 295 295 295 293 290 290 295 300 302 302 301 300 299 297 295 293 291 284 275 264 257 255 256 258 259 264 272 279 286 291 286 272 260 249 237 229 226 227 228 226 225 224 217 203 194